Comanche, TX

1:27 AM CDT on August 20, 2017 (GMT -0500)
Comanche

Weather History for KMKN - December, 2013

Change the Weather History Date:

Tuesday, December 31, 2013

  Actual Average (KSEP) Record (KSEP)
Temperature  
Mean Temperature 42 °F -  
Max Temperature 57 °F 54 °F 85 °F (1951)
Min Temperature 26 °F 29 °F 10 °F (1976)
Degree Days  
Heating Degree Days 24    
Moisture  
Dew Point 27 °F    
Average Humidity 60    
Maximum Humidity 83    
Minimum Humidity 33    
Precipitation  
Precipitation 0.00 in - - ()
Sea Level Pressure  
Sea Level Pressure 30.31 in    
Wind  
Wind Speed 5 mph (SSW)    
Max Wind Speed 13 mph    
Max Gust Speed 18 mph    
Visibility 10 miles    
Events      
Averages and records for this station are not official NWS values.
T = Trace of Precipitation, MM = Missing Value Source: NWS Daily Summary

Daily Weather History Graph

Daily Weather History Graph

Search for Another Location

Airport or City:

Trip Planner

Search our weather history database for the weather conditions in past years. The results will help you decide how hot, cold, wet, or windy it might be!

Date:

Astronomy

Dec. 31, 2013 Rise Set
Actual Time 7:34 AM CST 5:40 PM CST
Civil Twilight 7:07 AM CST 6:07 PM CST
Nautical Twilight 6:37 AM CST 6:38 PM CST
Astronomical Twilight 6:07 AM CST 7:07 PM CST
Moon 6:31 AM CST (12/31) 5:15 PM CST (12/31)
Length of Visible Light 10h 59m
Length of Day
10h 06m
Waning Crescent, 1% of the Moon is Illuminated
Dec 31
Waning Crescent
Jan 1
New
Jan 7
First Quarter
Jan 15
Full
Jan 23
Last Quarter

Hourly Weather History & Observations

Time (CST) Temp. Windchill Dew Point Humidity Pressure Visibility Wind Dir Wind Speed Gust Speed Precip Events Conditions
12:15 AM 32.0 °F 28.7 °F 23.9 °F 72% 30.39 in 10.0 mi West 3.5 mph - N/A   Clear
12:35 AM 32.2 °F 27.7 °F 23.9 °F 72% 30.39 in 10.0 mi WNW 4.6 mph - N/A   Clear
12:55 AM 32.0 °F 27.5 °F 24.1 °F 73% 30.39 in 10.0 mi WNW 4.6 mph - N/A   Clear
1:15 AM 31.5 °F - 23.9 °F 74% 30.39 in 10.0 mi Calm Calm - N/A   Clear
1:35 AM 30.7 °F 27.3 °F 24.3 °F 77% 30.38 in 10.0 mi WNW 3.5 mph - N/A   Clear
1:55 AM 31.1 °F 25.4 °F 23.9 °F 75% 30.39 in 10.0 mi NW 5.8 mph - N/A   Clear
2:15 AM 32.0 °F 27.5 °F 23.7 °F 71% 30.39 in 10.0 mi NW 4.6 mph - N/A   Clear
2:35 AM 32.0 °F 26.4 °F 23.9 °F 72% 30.38 in 10.0 mi NW 5.8 mph - N/A   Clear
2:55 AM 30.7 °F 24.9 °F 23.5 °F 75% 30.38 in 10.0 mi NW 5.8 mph - N/A   Clear
3:15 AM 30.4 °F 24.5 °F 23.4 °F 75% 30.38 in 10.0 mi NNW 5.8 mph - N/A   Clear
3:35 AM 30.6 °F 27.1 °F 23.4 °F 75% 30.38 in 10.0 mi NW 3.5 mph - N/A   Clear
3:55 AM 31.8 °F - 23.0 °F 70% 30.39 in 10.0 mi Calm Calm - N/A   Clear
4:15 AM 30.0 °F - 23.0 °F 75% 30.39 in 10.0 mi Calm Calm - N/A   Clear
4:35 AM 32.5 °F - 22.8 °F 67% 30.40 in 10.0 mi Calm Calm - N/A   Clear
4:55 AM 31.1 °F - 22.6 °F 71% 30.38 in 10.0 mi Calm Calm - N/A   Clear
5:15 AM 28.8 °F 23.7 °F 23.5 °F 81% 30.38 in 10.0 mi South 4.6 mph - N/A   Clear
5:35 AM 30.4 °F - 23.5 °F 76% 30.38 in 10.0 mi Calm Calm - N/A   Clear
5:55 AM 30.7 °F 26.0 °F 23.5 °F 75% 30.39 in 10.0 mi SW 4.6 mph - N/A   Clear
6:15 AM 31.8 °F 28.5 °F 23.2 °F 70% 30.39 in 10.0 mi SW 3.5 mph - N/A   Clear
6:35 AM 32.0 °F - 23.0 °F 69% 30.38 in 10.0 mi Calm Calm - N/A   Clear
6:55 AM 26.6 °F 21.2 °F 22.1 °F 83% 30.38 in 10.0 mi SSW 4.6 mph - N/A   Clear
7:15 AM 28.9 °F 22.8 °F 23.2 °F 79% 30.39 in 10.0 mi SSW 5.8 mph - N/A   Clear
7:35 AM 30.6 °F 24.7 °F 22.8 °F 73% 30.40 in 10.0 mi SSW 5.8 mph - N/A   Clear
7:55 AM 31.3 °F 27.9 °F 23.2 °F 72% 30.41 in 10.0 mi SSW 3.5 mph - N/A   Clear
8:15 AM 29.5 °F 23.4 °F 23.2 °F 77% 30.41 in 10.0 mi SW 5.8 mph - N/A   Clear
8:35 AM 32.2 °F 28.9 °F 25.7 °F 77% 30.40 in 10.0 mi SSW 3.5 mph - N/A   Clear
8:55 AM 35.4 °F - 27.1 °F 72% 30.40 in 10.0 mi Calm Calm - N/A   Clear
9:15 AM 38.1 °F - 28.0 °F 67% 30.40 in 10.0 mi Calm Calm - N/A   Clear
9:35 AM 39.0 °F - 29.3 °F 68% 30.41 in 10.0 mi Calm Calm - N/A   Clear
9:55 AM 42.8 °F 40.1 °F 28.9 °F 58% 30.42 in 10.0 mi SSW 4.6 mph - N/A   Clear
10:15 AM 45.1 °F 40.3 °F 27.9 °F 51% 30.43 in 10.0 mi SW 9.2 mph - N/A   Clear
10:35 AM 45.7 °F 42.7 °F 27.0 °F 48% 30.42 in 10.0 mi SW 5.8 mph - N/A   Clear
10:55 AM 46.9 °F - 27.0 °F 46% 30.41 in 10.0 mi SSW 5.8 mph - N/A   Clear
11:15 AM 48.4 °F - 26.8 °F 43% 30.40 in 10.0 mi South 5.8 mph - N/A   Clear
11:35 AM 48.9 °F - 25.2 °F 40% 30.38 in 10.0 mi SSE 4.6 mph - N/A   Clear
11:55 AM 49.6 °F - 25.3 °F 39% 30.37 in 10.0 mi SSE 5.8 mph - N/A   Clear
12:15 PM 51.3 °F - 26.2 °F 38% 30.36 in 10.0 mi SSW 4.6 mph - N/A   Clear
12:35 PM 52.5 °F - 27.1 °F 38% 30.35 in 10.0 mi South 6.9 mph - N/A   Clear
12:55 PM 53.1 °F - 26.8 °F 36% 30.33 in 10.0 mi SSE 5.8 mph - N/A   Clear
1:15 PM 54.1 °F - 26.8 °F 35% 30.31 in 10.0 mi South 6.9 mph - N/A   Clear
1:35 PM 55.2 °F - 27.3 °F 34% 30.30 in 10.0 mi South 6.9 mph - N/A   Clear
1:55 PM 55.9 °F - 27.7 °F 34% 30.28 in 10.0 mi South 9.2 mph - N/A   Clear
2:15 PM 56.3 °F - 27.5 °F 33% 30.27 in 10.0 mi South 5.8 mph - N/A   Clear
2:35 PM 56.7 °F - 27.5 °F 33% 30.26 in 10.0 mi South 6.9 mph - N/A   Clear
2:55 PM 57.0 °F - 28.0 °F 33% 30.26 in 10.0 mi South 6.9 mph - N/A   Clear
3:15 PM 56.5 °F - 27.7 °F 33% 30.25 in 10.0 mi South 9.2 mph - N/A   Clear
3:35 PM 56.8 °F - 28.2 °F 33% 30.25 in 10.0 mi South 9.2 mph - N/A   Clear
3:55 PM 57.0 °F - 28.9 °F 34% 30.25 in 10.0 mi South 6.9 mph - N/A   Clear
4:15 PM 56.3 °F - 28.9 °F 35% 30.24 in 10.0 mi South 8.1 mph - N/A   Clear
4:35 PM 56.3 °F - 28.6 °F 35% 30.25 in 10.0 mi South 4.6 mph - N/A   Clear
4:55 PM 55.4 °F - 28.9 °F 36% 30.24 in 10.0 mi South 8.1 mph - N/A   Clear
5:15 PM 53.8 °F - 30.9 °F 42% 30.24 in 10.0 mi South 5.8 mph - N/A   Clear
5:35 PM 51.1 °F - 31.8 °F 48% 30.23 in 10.0 mi SSE 6.9 mph - N/A   Clear
5:55 PM 49.1 °F - 31.5 °F 51% 30.22 in 10.0 mi SSE 5.8 mph - N/A   Clear
6:15 PM 48.0 °F - 31.5 °F 53% 30.22 in 10.0 mi SSE 5.8 mph - N/A   Clear
6:35 PM 46.4 °F 43.5 °F 31.3 °F 56% 30.22 in 10.0 mi SSE 5.8 mph - N/A   Clear
6:55 PM 44.2 °F 41.0 °F 31.1 °F 60% 30.21 in 10.0 mi South 5.8 mph - N/A   Clear
7:15 PM 43.7 °F 40.3 °F 31.1 °F 61% 30.21 in 10.0 mi SSE 5.8 mph - N/A   Clear
7:35 PM 43.7 °F 41.1 °F 30.6 °F 60% 30.21 in 10.0 mi SSE 4.6 mph - N/A   Clear
7:55 PM 42.8 °F 39.3 °F 30.7 °F 62% 30.21 in 10.0 mi SSE 5.8 mph - N/A   Clear
8:15 PM 41.0 °F 37.1 °F 30.7 °F 67% 30.21 in 10.0 mi South 5.8 mph - N/A   Clear
8:35 PM 40.3 °F 34.4 °F 31.5 °F 71% 30.21 in 10.0 mi South 9.2 mph - N/A   Clear
8:55 PM 40.1 °F 34.1 °F 31.5 °F 71% 30.21 in 10.0 mi South 9.2 mph - N/A   Clear
9:15 PM 39.7 °F 33.7 °F 31.5 °F 72% 30.20 in 10.0 mi SSE 9.2 mph - N/A   Clear
9:35 PM 40.1 °F 33.6 °F 31.1 °F 70% 30.20 in 10.0 mi SSE 10.4 mph - N/A   Clear
9:55 PM 40.1 °F 34.1 °F 31.1 °F 70% 30.19 in 10.0 mi SSE 9.2 mph - N/A   Clear
10:15 PM 39.6 °F 33.5 °F 31.1 °F 72% 30.19 in 10.0 mi South 9.2 mph - N/A   Clear
10:35 PM 40.1 °F 34.1 °F 31.1 °F 70% 30.18 in 10.0 mi South 9.2 mph - N/A   Clear
10:55 PM 40.5 °F 34.1 °F 31.1 °F 69% 30.18 in 10.0 mi South 10.4 mph - N/A   Clear
11:15 PM 41.4 °F 34.7 °F 31.6 °F 68% 30.17 in 10.0 mi SSW 11.5 mph - N/A   Clear
11:35 PM 41.4 °F 34.3 °F 31.8 °F 69% 30.16 in 10.0 mi South 12.7 mph 18.4 mph N/A   Clear
11:55 PM 41.4 °F 35.2 °F 32.0 °F 69% 30.16 in 10.0 mi SSW 10.4 mph - N/A   Clear